User: anonymous   Login
Location: Unspecified
(0.0000°N, 0.0000°E)
Time: 03:27:13
(UTC+02:00)
Language:

Ariane H10 - Orbit

View from above orbital plane
View from above orbital plane
View from above satellite
View from above satellite

Ground track
Ground track

The orbit data is extracted from the following two-line orbital elements,

1 19622U 88098B   17086.84403482 +.00020775 +00000-0 +23067-2 0  9999
2 19622 003.6400 210.0350 6408272 159.3448 247.0582 03.47271284301548
Epoch (UTC): 27 March 2017 20:15:24
Eccentricity: 0.6408272
inclination: 3.6400°
perigee height: 238 km
apogee height: 23845 km
right ascension of ascending node: 210.0350°
argument of perigee: 159.3448°
revolutions per day: 3.47271284
mean anomaly at epoch: 247.0582°
orbit number at epoch: 30154

The dashed part of the orbit path shows where the satellite is in the earth's shadow,  

DLR